CW5973 Weather Reports


Display with metric or nautical units.
time (UTC)temp
F
wind
direction
speed
MPH
gust
MPH
rain 1hr
in
rain 24hr
in
rain mn
in
humidity
%
barometer
mb
20181212034939 28 200 0.0 3.0 0.00 0.01 0.01 79 1018.4
20181212033425 28 200 0.0 0.0 0.00 0.01 0.01 79 1018.4
20181212031922 29 200 0.0 0.0 0.00 0.01 0.01 78 1018.5
20181212030431 29 200 0.0 0.0 0.00 0.01 0.01 78 1018.4
20181212024922 29 200 0.0 0.0 0.00 0.01 0.01 78 1018.4
20181212023428 29 200 0.0 0.0 0.00 0.01 0.01 77 1018.3
20181212021935 29 200 0.0 1.0 0.00 0.01 0.01 77 1018.3
20181212020426 29 200 0.0 1.0 0.00 0.01 0.01 76 1018.1
20181212014934 29 200 0.0 0.0 0.00 0.01 0.01 76 1017.9
20181212013424 30 200 0.0 0.0 0.00 0.01 0.01 75 1017.9
20181212011933 30 200 0.0 0.0 0.00 0.01 0.01 74 1018.3
20181212010425 30 200 0.0 0.0 0.00 0.01 0.01 73 1018.3
20181212004934 31 200 0.0 0.0 0.00 0.01 0.01 72 1018.3
20181212003440 31 200 0.0 0.0 0.00 0.01 0.01 71 1018.2
20181212001931 31 200 0.0 2.0 0.00 0.01 0.01 70 1017.8
20181212000435 32 200 0.0 0.0 0.00 0.01 0.01 68 1017.6
20181211234926 32 200 0.0 0.0 0.00 0.01 0.01 67 1017.6
20181211231921 33 200 0.0 0.0 0.00 0.01 0.01 64 1017.4
20181211230433 34 200 0.0 0.0 0.00 0.01 0.01 62 1017.4
20181211224937 35 200 0.0 0.0 0.00 0.01 0.01 60 1017.3
20181211223433 36 200 0.0 3.0 0.00 0.01 0.01 57 1017.2
20181211221942 38 200 0.0 2.0 0.00 0.01 0.01 53 1016.9
20181211220433 39 200 0.0 4.0 0.00 0.01 0.01 48 1016.8
20181211214941 41 201 0.0 11.0 0.00 0.01 0.01 40 1016.8
20181211213424 41 179 3.0 10.0 0.00 0.01 0.01 38 1016.9
20181211211935 41 215 4.0 7.0 0.00 0.01 0.01 37 1016.9
20181211210438 42 264 0.0 3.0 0.00 0.01 0.01 37 1017.0
20181211204928 42 281 0.0 10.0 0.00 0.01 0.01 34 1017.0
20181211203434 43 236 0.0 9.0 0.00 0.01 0.01 33 1017.2
20181211201940 43 277 2.0 6.0 0.00 0.01 0.01 32 1017.3
20181211200432 43 306 7.0 12.0 0.00 0.01 0.01 32 1017.3
20181211194937 43 217 4.0 15.0 0.00 0.01 0.01 32 1017.4
20181211193427 43 238 5.0 15.0 0.00 0.01 0.01 32 1017.3
20181211191935 43 216 2.0 12.0 0.00 0.01 0.01 32 1017.6
20181211190427 43 254 0.0 12.0 0.00 0.01 0.01 35 1017.8
20181211184934 42 196 7.0 18.0 0.00 0.01 0.01 35 1018.1
20181211183438 42 169 4.0 10.0 0.00 0.01 0.01 38 1018.4
20181211181927 41 156 3.0 11.0 0.00 0.01 0.01 40 1018.7
20181211180432 41 153 1.0 11.0 0.00 0.01 0.01 42 1019.1
20181211174924 40 242 3.0 10.0 0.00 0.01 0.01 44 1019.4
20181211173431 40 128 1.0 6.0 0.00 0.01 0.01 48 1019.9
20181211171940 39 271 1.0 10.0 0.00 0.01 0.01 47 1020.3
20181211170430 39 295 0.0 7.0 0.00 0.01 0.01 50 1020.8
20181211164937 38 274 0.0 14.0 0.00 0.01 0.01 52 1021.0
20181211163429 37 186 2.0 8.0 0.00 0.01 0.01 54 1021.4
20181211161937 37 194 0.0 7.0 0.00 0.01 0.01 58 1021.6
20181211160427 36 157 1.0 3.0 0.01 0.01 0.01 63 1022.1
20181211154933 34 164 0.0 13.0 0.01 0.01 0.01 68 1022.1
20181211153437 33 185 4.0 12.0 0.01 0.01 0.01 73 1022.3
20181211151928 31 188 2.0 7.0 0.01 0.01 0.01 80 1022.6
20181211150432 30 213 0.0 10.0 0.00 0.00 0.00 84 1022.7
20181211144922 28 180 3.0 8.0 0.00 0.00 0.00 88 1022.6
20181211143428 27 197 3.0 7.0 0.00 0.00 0.00 90 1022.7
20181211141936 25 188 0.0 0.0 0.00 0.00 0.00 90 1022.6
20181211140424 23 188 0.0 0.0 0.00 0.00 0.00 89 1022.6
20181211134927 23 188 0.0 0.0 0.00 0.00 0.00 88 1022.6
20181211133434 23 188 0.0 0.0 0.00 0.00 0.00 88 1022.5
20181211131921 23 188 0.0 0.0 0.00 0.00 0.00 88 1022.1
20181211130427 23 188 0.0 0.0 0.00 0.00 0.00 88 1022.3
20181211124937 23 188 0.0 0.0 0.00 0.00 0.00 88 1022.2
20181211123424 24 188 0.0 0.0 0.00 0.00 0.00 89 1022.1
20181211121934 24 188 0.0 0.0 0.00 0.00 0.00 89 1022.0
20181211120422 24 188 0.0 0.0 0.00 0.00 0.00 89 1022.1
20181211114934 24 188 0.0 2.0 0.00 0.00 0.00 89 1022.0
20181211113425 24 188 0.0 0.0 0.00 0.00 0.00 89 1022.1
20181211111935 24 188 0.0 0.0 0.00 0.00 0.00 89 1022.0
20181211110425 24 186 0.0 3.0 0.00 0.00 0.00 89 1021.9
20181211104931 23 186 0.0 4.0 0.00 0.00 0.00 89 1021.6
20181211103426 23 61 0.0 1.0 0.00 0.00 0.00 89 1021.6
20181211101940 22 65 0.0 2.0 0.00 0.00 0.00 89 1021.5
20181211100432 22 178 0.0 0.0 0.00 0.00 0.00 89 1021.4
20181211094920 21 178 0.0 0.0 0.00 0.00 0.00 88 1021.6
20181211093432 21 178 0.0 0.0 0.00 0.00 0.00 88 1021.4
20181211091926 20 178 0.0 0.0 0.00 0.00 0.00 87 1021.4
20181211090437 19 178 0.0 0.0 0.00 0.00 0.00 87 1021.5
20181211084932 19 178 0.0 0.0 0.00 0.00 0.00 87 1021.6
20181211083424 19 178 0.0 0.0 0.00 0.00 0.00 86 1021.7
20181211081938 19 178 0.0 0.0 0.00 0.00 0.00 86 1021.5
20181211080424 19 178 0.0 0.0 0.00 0.00 0.00 86 1021.6
20181211074929 20 178 0.0 0.0 0.00 0.00 0.00 86 1021.5
20181211073439 20 178 0.0 0.0 0.00 0.00 0.00 86 1021.5
20181211071927 20 178 0.0 0.0 0.00 0.00 0.00 86 1021.4
20181211070437 20 178 0.0 0.0 0.00 0.00 0.00 85 1021.3
20181211064927 20 178 0.0 0.0 0.00 0.00 0.00 85 1021.3
20181211063419 21 178 0.0 0.0 0.00 0.00 0.00 85 1021.1
20181211061932 21 178 0.0 0.0 0.00 0.00 0.00 85 1021.1
20181211060418 21 178 0.0 0.0 0.00 0.00 0.00 84 1021.0
20181211054931 21 178 0.0 0.0 0.00 0.00 0.00 84 1021.1
20181211053420 21 178 0.0 0.0 0.00 0.00 0.00 84 1021.2
20181211051935 22 178 0.0 0.0 0.00 0.00 0.00 84 1021.4
20181211050422 22 178 0.0 0.0 0.00 0.00 0.00 83 1021.4
20181211044926 22 178 0.0 0.0 0.00 0.00 0.00 83 1021.6
20181211043436 22 178 0.0 0.0 0.00 0.00 0.00 83 1021.6
20181211041928 22 178 0.0 0.0 0.00 0.00 0.00 82 1021.6
20181211040439 23 178 0.0 0.0 0.00 0.00 0.00 82 1021.6